Location: Maignaut
(43.8886°N, 0.4051°E)
Time: 19:21:18
(UTC+00:00)

USA 234 - Pass Details

Date: 17 January 2021
Orbit: 1100 x 1107 km, 123.0° (Epoch: 26 February)

Event Time Altitude Azimuth Distance (km) Brightness Sun altitude
Exits shadow 19:06:22 42° 51° (NE) 1,521 3.6 -24.3°
Maximum altitude 19:07:26 46° 25° (NNE) 1,455 3.6 -24.5°
Drops below altitude 10° 19:13:35 10° 316° (NW) 2,967 6.0 -25.6°
Sets 19:16:10 0° 310° (NW) 3,928 6.8 -26.1°
